Location: Hope
(40.9110°N, 74.9680°W)
Time: 03:46:43
(UTC-05:00)

FORTE - Pass Details

Date: 11 December 2021
Orbit: 785 x 822 km, 70.0° (Epoch: 22 January)

Event Time Altitude Azimuth Distance (km) Brightness Sun altitude
Exits shadow 04:43:35 79° 34° (NE) 809 7.0 -27.7°
Drops below altitude 10° 04:48:41 10° 26° (NNE) 2,372 9.7 -26.7°
Sets 04:51:07 0° 26° (NNE) 3,311 10.5 -26.3°
